This is the latest recevied weather packets stored in our database for station/object LA3SP-1. If no packets are shown the sender has not sent any weather packets the latest 10 day(s).
| Time | Temp. | Humidity | Pressure | Rain* | Wind** | Luminosity | Snow |
|---|---|---|---|---|---|---|---|
| 1777922938 | -2.78° C | 68% | 1001.2 hPa | 0 mm | - | - | - |
| 1777922337 | -2.22° C | 68% | 1001 hPa | 0 mm | - | - | - |
| 1777920533 | -1.67° C | 70% | 1000.7 hPa | 0 mm | - | - | - |
| 1777919932 | -1.11° C | 71% | 1000.6 hPa | 0 mm | - | - | - |
| 1777919330 | -0.56° C | 71% | 1000.5 hPa | 0 mm | - | - | - |
| 1777917526 | 0.56° C | 72% | 1000.4 hPa | 0 mm | - | - | - |
| 1777915722 | 0° C | 73% | 1000.3 hPa | 0 mm | - | - | - |
| 1777914519 | -0.56° C | 72% | 1000.2 hPa | 0 mm | - | - | - |
| 1777912113 | 0° C | 77% | 1000.2 hPa | 0 mm | - | - | - |
| 1777911512 | 0° C | 77% | 1000.2 hPa | 0 mm | - | - | - |
| 1777910309 | 0.56° C | 76% | 1000 hPa | 0 mm | - | - | - |
| 1777909707 | 0.56° C | 75% | 1000.1 hPa | 0 mm | - | - | - |
| 1777909106 | 1.11° C | 74% | 999.8 hPa | 0 mm | - | - | - |
| 1777903694 | 1.67° C | 72% | 1000.1 hPa | 0 mm | - | - | - |
| 1777901288 | 2.78° C | 69% | 1000.5 hPa | 0 mm | - | - | - |
| 1777900686 | 3.33° C | 70% | 1000.4 hPa | 0 mm | - | - | - |
| 1777900085 | 2.78° C | 69% | 1000.4 hPa | 0 mm | - | - | - |
| 1777898882 | 2.78° C | 68% | 1000.4 hPa | 0 mm | - | - | - |
| 1777897078 | 3.33° C | 63% | 1000.7 hPa | 0 mm | - | - | - |
| 1777895876 | 3.89° C | 59% | 1000.6 hPa | 0 mm | - | - | - |
| 1777895274 | 5° C | 57% | 1000.4 hPa | 0 mm | - | - | - |
| 1777894071 | 4.44° C | 56% | 1000.5 hPa | 0 mm | - | - | - |
| 1777893470 | 4.44° C | 55% | 1000.4 hPa | 0 mm | - | - | - |
| 1777892267 | 6.11° C | 50% | 1000.6 hPa | 0 mm | - | - | - |
| 1777891064 | 7.78° C | 51% | 1001.1 hPa | 0 mm | - | - | - |
* Rain latest 24 hours (hover to see other rain measurements)
** Current wind speed in m/s (hover to see current wind gust speed)